This demonstration page uses our WeatherBlox Daily Observations layout. Learn more.

41.55636, -103.73856

Hourly Observations for August 24, 2018

Temp ( °F °C ) Dew Point ( °F °C ) Humidity (%) Winds ( mph kmh ) Pressure ( in mb ) Visibility ( mi km ) Precip ( " mm )
12:58 am 00:58 Clear 54 12.2 41 5.1 62 62 W 6 9 29.85 1011 10 16.09344 0 0
1:58 am 01:58 Clear 53 11.5 41 5.2 66 66 WSW 9 15 29.85 1011 10 16.09344 0 0
2:58 am 02:58 Clear 53 11.7 41 4.9 63 63 W 8 13 29.85 1011 10 16.09344 0 0
3:58 am 03:58 Clear 51 10.5 40 4.7 68 68 WNW 12 19 29.85 1011 10 16.09344 0 0
4:58 am 04:58 Clear 50 9.8 40 4.4 69 69 W 8 13 29.85 1011 10 16.09344 0 0
5:58 am 05:58 Clear 48 9.1 39 4.1 71 71 W 7 11 29.88 1012 10 16.09344 0 0
6:58 am 06:58 Sunny 50 9.8 40 4.2 68 68 WNW 9 15 29.91 1013 9 14.484096 0 0
7:58 am 07:58 Sunny 63 17.2 39 4 42 42 NW 12 19 29.85 1011 10 16.09344 0 0
8:58 am 08:58 Sunny 71 21.7 37 3 29 29 NW 14 22 29.88 1012 10 16.09344 0 0
9:58 am 09:58 Sunny 75 24 37 2.7 25 25 WNW 16 26 29.88 1012 10 16.09344 0 0
10:58 am 10:58 Sunny 79 26.3 36 2.3 21 21 WNW 13 20 29.88 1012 10 16.09344 0 0
11:58 am 11:58 Sunny 81 27.3 34 1 18 18 NNW 17 28 29.85 1011 10 16.09344 0 0
12:58 pm 12:58 Sunny 83 28.1 31 -0.4 16 16 NNW 9 15 29.83 1010 10 16.09344 0 0
1:58 pm 13:58 Sunny 85 29.2 32 0.1 15 15 NNW 12 19 29.83 1010 10 16.09344 0 0
2:58 pm 14:58 Sunny 85 29.4 28 -2.2 13 13 NW 8 13 29.83 1010 10 16.09344 0 0
3:58 pm 15:58 Sunny 86 29.9 29 -1.7 13 13 NW 8 13 29.83 1010 10 16.09344 0 0
4:58 pm 16:58 Sunny 85 29.2 31 -0.8 14 14 NNE 7 11 29.83 1010 10 16.09344 0 0
5:58 pm 17:58 Sunny 82 27.7 40 4.6 23 23 ENE 3 6 29.83 1010 10 16.09344 0 0
6:58 pm 18:58 Sunny 76 24.6 40 4.6 27 27 E 6 9 29.83 1010 10 16.09344 0 0
7:58 pm 19:58 Clear 67 19.6 39 4 36 36 SE 9 15 29.83 1010 10 16.09344 0 0
8:58 pm 20:58 Partly Cloudy 69 20.5 40 4.2 34 34 SSW 5 7 29.85 1011 10 16.09344 0 0
9:58 pm 21:58 Clear 72 22.4 33 0.7 24 24 S 5 7 29.88 1012 10 16.09344 0 0
10:58 pm 22:58 Mostly Clear 67 19.4 35 1.8 31 31 S 10 17 29.85 1011 10 16.09344 0 0
11:58 pm 23:58 Mostly Clear 67 19.5 36 2 31 31 SSW 7 11 29.85 1011 10 16.09344 0 0

Powered by AerisWeather